O3B FM16 (43232 NORAD) Tracking and Keplerian Element Data

This shows tracking and keplerian element data for the satellite.

Feedback or suggestion? Click here.




ElementValue
Catalog43232
NameO3B FM16
Epoch Orbit1254
Epoch Day319.25624373
Epoch Year2018
RAAN1.8667
Inclination0.0364
Eccentricity0.0003123
Argument of Perigee236.0141
Mean Anonmoly122.0947
Mean Motion5.00116146
Decay Rate-2.4E-07
L11 43232U 18024B 18319.25624373 -.00000024 00000-0 00000-0 0 9990
L22 43232 0.0364 1.8667 0003123 236.0141 122.0947 5.00116146 12544

Live tracking and technical data element details for O3B FM16 (NORAD 43232). O3B FM16 can be tracked NOW for your location showing map with azimuth and elevation plus other details from your city location.

Track the satellite on the map from your city or location and see movement details for azimuth, elevation, latitude, longitude, range, height, and movement on the map or in text.







IsCatalogInMostPopularTable: catalog: 43232, numindb: 81
Update: records affected: 1



GetName: 43232 O3B FM16

Hit Count: updated at: Sat, 17 Nov 2018 04:47:36 GMT